Weather History for KBDG - August, 2014

Change the Weather History Date:

Monday, August 25, 2014

  Actual Average Record
Temperature  
Mean Temperature 68 °F -  
Max Temperature 79 °F 84 °F 93 °F (1931)
Min Temperature 57 °F 55 °F 44 °F (1922)
Cooling Degree Days 3    
Growing Degree Days 18 (Base 50)    
Moisture  
Dew Point 44 °F    
Average Humidity 43    
Maximum Humidity 64    
Minimum Humidity 23    
Precipitation  
Precipitation 0.00 in - - ()
Sea Level Pressure  
Sea Level Pressure 30.20 in    
Wind  
Wind Speed 6 mph (SSE)    
Max Wind Speed 15 mph    
Max Gust Speed 25 mph    
Visibility 10 miles    
Events      
Averages and records for this station are not official NWS values.
T = Trace of Precipitation, MM = Missing Value Source: NWS Daily Summary

Daily Weather History Graph

Daily Weather History Graph

Search for Another Location

Airport or City:

Trip Planner

Search our weather history database for the weather conditions in past years. The results will help you decide how hot, cold, wet, or windy it might be!

Date:

Astronomy

Aug. 25, 2014 Rise Set
Actual Time 6:42 AM MDT 7:56 PM MDT
Civil Twilight 6:15 AM MDT 8:24 PM MDT
Nautical Twilight 5:42 AM MDT 8:56 PM MDT
Astronomical Twilight 5:08 AM MDT 9:30 PM MDT
Moon 6:49 AM MDT (8/25) 7:50 PM MDT (8/25)
Length of Visible Light 14h 08m
Length of Day
13h 14m
New Moon, 0% of the Moon is Illuminated
Aug 25
New Moon
Sep 2
First Quarter
Sep 8
Full
Sep 15
Last Quarter
Sep 24
New

Hourly Weather History & Observations

Time (MDT) Temp. Dew Point Humidity Pressure Visibility Wind Dir Wind Speed Gust Speed Precip Events Conditions
12:15 AM 62.4 °F 46.4 °F 56% 30.16 in 10.0 mi North 4.6 mph - N/A   Clear
12:35 AM 62.4 °F 46.2 °F 55% 30.17 in 10.0 mi NNW 3.5 mph - N/A   Scattered Clouds
12:55 AM 62.8 °F 45.7 °F 54% 30.17 in 10.0 mi Calm Calm - N/A   Clear
1:15 AM 62.6 °F 45.5 °F 54% 30.17 in 10.0 mi NNW 3.5 mph - N/A   Clear
1:35 AM 62.1 °F 45.7 °F 55% 30.17 in 10.0 mi Calm Calm - N/A   Clear
1:55 AM 61.3 °F 46.0 °F 57% 30.17 in 10.0 mi Calm Calm - N/A   Clear
2:15 AM 60.8 °F 46.6 °F 59% 30.17 in 10.0 mi NNE 3.5 mph - N/A   Clear
2:35 AM 60.8 °F 46.4 °F 59% 30.17 in 10.0 mi North 4.6 mph - N/A   Clear
2:55 AM 60.6 °F 46.2 °F 59% 30.18 in 10.0 mi North 3.5 mph - N/A   Scattered Clouds
3:15 AM 61.0 °F 46.0 °F 58% 30.17 in 10.0 mi ENE 3.5 mph - N/A   Clear
3:35 AM 59.5 °F 47.1 °F 63% 30.18 in 10.0 mi NE 5.8 mph - N/A   Scattered Clouds
3:55 AM 59.5 °F 46.2 °F 61% 30.18 in 10.0 mi NE 5.8 mph - N/A   Scattered Clouds
4:15 AM 59.5 °F 45.7 °F 60% 30.18 in 10.0 mi NE 8.1 mph - N/A   Clear
4:35 AM 59.5 °F 45.5 °F 60% 30.19 in 10.0 mi NE 6.9 mph - N/A   Clear
4:55 AM 59.2 °F 45.3 °F 60% 30.19 in 10.0 mi NE 8.1 mph - N/A   Clear
5:15 AM 59.0 °F 45.1 °F 60% 30.19 in 10.0 mi NE 8.1 mph - N/A   Clear
5:35 AM 59.0 °F 45.1 °F 60% 30.20 in 10.0 mi NE 6.9 mph - N/A   Clear
5:55 AM 57.7 °F 45.7 °F 64% 30.20 in 10.0 mi NNE 8.1 mph - N/A   Clear
6:15 AM 58.6 °F 45.3 °F 61% 30.21 in 10.0 mi NNE 6.9 mph - N/A   Clear
6:35 AM 58.8 °F 45.5 °F 61% 30.21 in 10.0 mi NNE 9.2 mph - N/A   Clear
6:55 AM 59.9 °F 45.5 °F 59% 30.22 in 10.0 mi NNE 8.1 mph - N/A   Clear
7:15 AM 60.4 °F 45.9 °F 59% 30.23 in 10.0 mi NNE 6.9 mph - N/A   Scattered Clouds
7:35 AM 60.8 °F 46.4 °F 59% 30.23 in 10.0 mi NNE 8.1 mph - N/A   Clear
7:55 AM 61.2 °F 46.6 °F 59% 30.23 in 10.0 mi NNE 5.8 mph - N/A   Clear
8:35 AM 62.8 °F 47.5 °F 57% 30.25 in 10.0 mi NE 5.8 mph - N/A   Scattered Clouds
8:55 AM 65.8 °F 47.3 °F 51% 30.25 in 10.0 mi East 5.8 mph - N/A   Clear
9:15 AM 67.3 °F 47.8 °F 50% 30.25 in 10.0 mi SE 4.6 mph - N/A   Scattered Clouds
9:35 AM 67.3 °F 48.4 °F 51% 30.26 in 10.0 mi SE 5.8 mph - N/A   Mostly Cloudy
9:55 AM 67.5 °F 48.2 °F 50% 30.26 in 10.0 mi South 4.6 mph - N/A   Scattered Clouds
10:15 AM 67.5 °F 48.6 °F 51% 30.26 in 10.0 mi South 6.9 mph - N/A   Clear
10:35 AM 68.5 °F 48.0 °F 48% 30.27 in 10.0 mi South 6.9 mph - N/A   Scattered Clouds
10:55 AM 70.0 °F 48.4 °F 46% 30.26 in 10.0 mi South 8.1 mph - N/A   Clear
11:15 AM 71.6 °F 48.4 °F 44% 30.26 in 10.0 mi SSE 6.9 mph - N/A   Clear
11:35 AM 72.9 °F 48.4 °F 42% 30.26 in 10.0 mi South 6.9 mph - N/A   Clear
11:55 AM 73.6 °F 48.7 °F 41% 30.26 in 10.0 mi South 5.8 mph - N/A   Clear
12:15 PM 74.5 °F 48.6 °F 40% 30.26 in 10.0 mi South 3.5 mph - N/A   Scattered Clouds
12:35 PM 75.9 °F 47.8 °F 37% 30.25 in 10.0 mi South 3.5 mph - N/A   Clear
12:55 PM 76.5 °F 47.3 °F 36% 30.25 in 10.0 mi SE 8.1 mph - N/A   Scattered Clouds
1:15 PM 77.5 °F 46.6 °F 33% 30.24 in 10.0 mi SE 8.1 mph - N/A   Scattered Clouds
1:35 PM 77.7 °F 46.0 °F 33% 30.23 in 10.0 mi SE 6.9 mph - N/A   Scattered Clouds
1:55 PM 78.8 °F 44.8 °F 30% 30.23 in 10.0 mi South 6.9 mph 16.1 mph N/A   Scattered Clouds
2:15 PM 79.2 °F 45.0 °F 30% 30.23 in 10.0 mi SSW 12.7 mph 18.4 mph N/A   Clear
2:35 PM 79.0 °F 45.5 °F 31% 30.22 in 10.0 mi SSE 8.1 mph 17.3 mph N/A   Clear
2:55 PM 79.9 °F 45.1 °F 29% 30.21 in 10.0 mi South 13.8 mph 21.9 mph N/A   Scattered Clouds
3:15 PM 79.3 °F 45.5 °F 30% 30.21 in 10.0 mi South 13.8 mph 25.3 mph N/A   Scattered Clouds
3:35 PM 79.7 °F 44.4 °F 29% 30.20 in 10.0 mi South 15.0 mph 24.2 mph N/A   Scattered Clouds
3:55 PM 79.2 °F 41.5 °F 26% 30.20 in 10.0 mi South 9.2 mph 17.3 mph N/A   Clear
4:15 PM 78.8 °F 38.5 °F 24% 30.19 in 10.0 mi South 11.5 mph 17.3 mph N/A   Clear
4:35 PM 78.8 °F 38.1 °F 23% 30.19 in 10.0 mi South 10.4 mph 21.9 mph N/A   Clear
4:55 PM 78.3 °F 38.5 °F 24% 30.18 in 10.0 mi South 13.8 mph - N/A   Clear
5:15 PM 78.4 °F 39.4 °F 25% 30.18 in 10.0 mi South 11.5 mph 17.3 mph N/A   Clear
5:35 PM 79.3 °F 41.2 °F 26% 30.18 in 10.0 mi South 12.7 mph - N/A   Clear
5:55 PM 79.5 °F 41.5 °F 26% 30.17 in 10.0 mi South 10.4 mph - N/A   Clear
6:15 PM 78.6 °F 41.9 °F 27% 30.16 in 10.0 mi SSW 10.4 mph 17.3 mph N/A   Clear
6:35 PM 77.9 °F 41.5 °F 27% 30.16 in 10.0 mi SSE 5.8 mph - N/A   Clear
6:55 PM 77.2 °F 41.7 °F 28% 30.16 in 10.0 mi South 6.9 mph - N/A   Clear
7:15 PM 76.1 °F 42.4 °F 30% 30.16 in 10.0 mi SSE 5.8 mph - N/A   Clear
7:35 PM 74.5 °F 42.8 °F 32% 30.16 in 10.0 mi SSE 4.6 mph - N/A   Clear
7:55 PM 73.8 °F 43.0 °F 33% 30.16 in 10.0 mi Calm Calm - N/A   Clear
8:15 PM 73.2 °F 43.3 °F 34% 30.16 in 10.0 mi SE 3.5 mph - N/A   Clear
8:35 PM 72.7 °F 42.3 °F 33% 30.16 in 10.0 mi Calm Calm - N/A   Clear
8:55 PM 72.1 °F 43.0 °F 35% 30.18 in 10.0 mi WSW 4.6 mph - N/A   Clear
9:15 PM 71.6 °F 41.2 °F 33% 30.18 in 10.0 mi WSW 9.2 mph - N/A   Clear
9:35 PM 72.1 °F 36.5 °F 27% 30.19 in 10.0 mi West 6.9 mph - N/A   Clear
9:55 PM 71.4 °F 35.4 °F 27% 30.19 in 10.0 mi WSW 5.8 mph - N/A   Clear
10:15 PM 70.9 °F 35.2 °F 27% 30.20 in 10.0 mi WSW 4.6 mph - N/A   Clear
10:35 PM 70.5 °F 36.7 °F 29% 30.20 in 10.0 mi West 3.5 mph - N/A   Clear
10:55 PM - - N/A% 30.21 in 10.0 mi Calm Calm - N/A   Unknown
11:15 PM 69.3 °F 36.7 °F 30% 30.22 in 10.0 mi Calm Calm - N/A   Clear
11:35 PM 68.9 °F 39.7 °F 35% 30.22 in 10.0 mi WSW 4.6 mph - N/A   Clear
11:55 PM 68.9 °F 39.9 °F 35% 30.22 in 10.0 mi WSW 4.6 mph - N/A   Clear